timestamp,surface_pressure_avg,surface_temp_avg,battery_voltage,lat,long
2020-04-04 00:09:01+00:00,221.9915,1.4,12.73,47.84626,-54.09684
2020-04-04 00:19:01+00:00,222.9898,1.3,12.65,47.84626,-54.09684
2020-04-04 00:29:01+00:00,220.1047,1.47,12.65,47.84626,-54.09684
2020-04-04 00:39:01+00:00,216.4031,1.2,12.65,47.84626,-54.09684
2020-04-04 00:49:01+00:00,216.5131,1.39,12.65,47.84626,-54.09684
2020-04-04 00:59:01+00:00,216.5615,1.46,12.65,47.84626,-54.09684
2020-04-04 01:09:01+00:00,214.9415,1.5,12.65,47.84626,-54.09684
2020-04-04 01:19:01+00:00,215.0848,1.5,12.65,47.84626,-54.09684
2020-04-04 01:29:01+00:00,215.2398,1.5,12.65,47.84626,-54.09684
2020-04-04 01:39:01+00:00,213.5432,1.5,12.65,47.84626,-54.09684
2020-04-04 01:49:01+00:00,212.7598,1.16,12.65,47.84626,-54.09684
2020-04-04 01:59:01+00:00,215.4448,1.16,12.65,47.84626,-54.09684
2020-04-04 02:09:01+00:00,215.2998,1.12,12.65,47.84626,-54.09684
2020-04-04 02:19:01+00:00,213.1764,1.1,12.65,47.84626,-54.09684
2020-04-04 02:29:01+00:00,212.6248,1.12,12.65,47.84626,-54.09684
2020-04-04 02:39:01+00:00,215.5564,1.16,12.65,47.84626,-54.09684
2020-04-04 02:49:01+00:00,216.143,1.1,12.65,47.84626,-54.09684
2020-04-04 02:59:01+00:00,217.0947,1.1,12.65,47.84626,-54.09684
2020-04-04 03:09:01+00:00,221.0881,1.0,12.65,47.84626,-54.09684
2020-04-04 03:19:01+00:00,224.0364,0.8,12.65,47.84626,-54.09684
2020-04-04 03:29:01+00:00,223.3198,0.7,12.65,47.84626,-54.09684
2020-04-04 03:39:01+00:00,225.5815,0.6,12.65,47.84626,-54.09684
2020-04-04 03:49:01+00:00,231.6265,0.6,12.65,47.84626,-54.09684
2020-04-04 03:59:01+00:00,233.6614,0.6,12.65,47.84626,-54.09684
2020-04-04 04:09:01+00:00,234.2281,0.6,12.65,47.84626,-54.09684
2020-04-04 04:19:01+00:00,239.4597,0.6,12.57,47.84626,-54.09684
2020-04-04 04:29:01+00:00,244.2881,0.6,12.57,47.84626,-54.09684
2020-04-04 04:39:01+00:00,245.9015,0.59,12.57,47.84626,-54.09684
2020-04-04 04:49:01+00:00,249.2697,0.5,12.57,47.84626,-54.09684
2020-04-04 04:59:01+00:00,256.9231,0.5,12.57,47.84626,-54.09684
2020-04-04 05:09:01+00:00,262.2581,0.5,12.57,47.84626,-54.09684
2020-04-04 05:19:01+00:00,266.6981,0.5,12.57,47.84626,-54.09684
2020-04-04 05:29:01+00:00,272.8564,0.5,12.57,47.84626,-54.09684
2020-04-04 05:39:01+00:00,280.5198,0.5,12.57,47.84626,-54.09684
2020-04-04 05:49:01+00:00,284.0597,0.5,12.57,47.84626,-54.09684
2020-04-04 05:59:01+00:00,287.8614,0.5,12.57,47.84626,-54.09684
2020-04-04 06:09:01+00:00,293.6947,0.5,12.57,47.84626,-54.09684
2020-04-04 06:19:01+00:00,299.993,0.5,12.57,47.84626,-54.09684
2020-04-04 06:29:01+00:00,303.1614,0.5,12.57,47.84626,-54.09684
2020-04-04 06:39:01+00:00,307.993,0.5,12.57,47.84626,-54.09684
2020-04-04 06:49:01+00:00,313.6114,0.5,12.57,47.84626,-54.09684
2020-04-04 06:59:01+00:00,317.5929,0.5,12.57,47.84626,-54.09684
2020-04-04 07:09:01+00:00,317.8145,0.49,12.57,47.84626,-54.09684
2020-04-04 07:19:01+00:00,319.498,0.46,12.57,47.84626,-54.09684
2020-04-04 07:29:01+00:00,324.403,0.46,12.57,47.84626,-54.09684
2020-04-04 07:39:01+00:00,328.8981,0.45,12.57,47.84626,-54.09684
2020-04-04 07:49:01+00:00,328.4797,0.45,12.57,47.84626,-54.09684
2020-04-04 07:59:01+00:00,328.1313,0.42,12.57,47.84626,-54.09684
2020-04-04 08:09:01+00:00,333.1879,0.44,12.57,47.84626,-54.09684
2020-04-04 08:19:01+00:00,337.11800000000005,0.46,12.49,47.84626,-54.09684
2020-04-04 08:29:01+00:00,335.1646,0.43,12.49,47.84626,-54.09684
2020-04-04 08:39:01+00:00,334.1196,0.4,12.49,47.84626,-54.09684
2020-04-04 08:49:01+00:00,340.5479,0.4,12.49,47.84626,-54.09684
2020-04-04 08:59:01+00:00,339.0013,0.4,12.49,47.84626,-54.09684
2020-04-04 09:09:01+00:00,332.5497,0.4,12.49,47.84626,-54.09684
2020-04-04 09:19:01+00:00,331.6365,0.4,12.49,47.84626,-54.09684
2020-04-04 09:29:01+00:00,332.6629,0.39,12.49,47.84626,-54.09684
2020-04-04 09:39:01+00:00,326.5913,0.38,12.49,47.84626,-54.09684
2020-04-04 09:49:01+00:00,319.8997,0.37,12.49,47.84626,-54.09684
2020-04-04 09:59:01+00:00,319.353,0.36,12.49,47.84626,-54.09684
2020-04-04 10:09:01+00:00,316.148,0.35,12.49,47.84626,-54.09684
2020-04-04 10:19:01+00:00,307.5414,0.36,12.57,47.84626,-54.09684
2020-04-04 10:29:01+00:00,302.7614,0.38,12.57,47.84626,-54.09684
2020-04-04 10:39:01+00:00,299.758,0.37,12.57,47.84626,-54.09684
2020-04-04 10:49:01+00:00,292.8446,0.39,12.57,47.84626,-54.09684
2020-04-04 10:59:01+00:00,285.2448,0.4,12.57,47.84626,-54.09684
2020-04-04 11:09:01+00:00,280.568,0.4,12.57,47.84626,-54.09684
2020-04-04 11:19:01+00:00,275.8197,0.4,12.65,47.84626,-54.09684
2020-04-04 11:29:01+00:00,269.3514,0.4,12.65,47.84626,-54.09684
2020-04-04 11:39:01+00:00,264.6114,0.4,12.65,47.84626,-54.09684
2020-04-04 11:49:01+00:00,257.1164,0.4,12.65,47.84626,-54.09684
2020-04-04 11:59:01+00:00,249.2081,0.39,12.65,47.84626,-54.09684
2020-04-04 12:09:01+00:00,244.3615,0.37,12.65,47.84626,-54.09684
2020-04-04 12:19:01+00:00,241.7514,0.38,13.05,47.84626,-54.09684
2020-04-04 12:29:01+00:00,237.088,0.38,13.05,47.84626,-54.09684
2020-04-04 12:39:01+00:00,232.9448,0.39,13.05,47.84626,-54.09684
2020-04-04 12:49:01+00:00,230.9198,0.4,13.05,47.84626,-54.09684
2020-04-04 12:59:01+00:00,227.3131,0.4,13.05,47.84626,-54.09684
2020-04-04 13:09:01+00:00,222.6964,0.39,13.05,47.84626,-54.09684
2020-04-04 13:19:01+00:00,218.7031,0.4,13.44,47.84626,-54.09684
2020-04-04 13:29:01+00:00,214.9098,0.4,13.44,47.84626,-54.09684
2020-04-04 13:39:01+00:00,210.8097,0.4,13.44,47.84626,-54.09684
2020-04-04 13:49:01+00:00,208.9014,0.4,13.44,47.84626,-54.09684
2020-04-04 13:59:01+00:00,208.2697,0.4,13.44,47.84626,-54.09684
2020-04-04 14:09:01+00:00,207.0615,0.4,13.44,47.84626,-54.09684
2020-04-04 14:19:01+00:00,204.2315,0.4,13.84,47.84626,-54.09684
2020-04-04 14:29:01+00:00,202.8931,0.39,13.84,47.84626,-54.09684
2020-04-04 14:39:01+00:00,201.6647,0.39,13.84,47.84626,-54.09684
2020-04-04 14:49:01+00:00,199.3831,0.39,13.84,47.84626,-54.09684
2020-04-04 14:59:01+00:00,197.1864,0.39,13.84,47.84626,-54.09684
2020-04-04 15:09:01+00:00,197.4765,0.38,13.84,47.84626,-54.09684
2020-04-04 15:19:01+00:00,197.8415,0.37,14.48,47.84626,-54.09684
2020-04-04 15:29:01+00:00,197.8365,0.38,14.48,47.84626,-54.09684
2020-04-04 15:39:01+00:00,200.2715,0.37,14.48,47.84626,-54.09684
2020-04-04 15:49:01+00:00,204.0231,0.37,14.48,47.84626,-54.09684
2020-04-04 15:59:01+00:00,205.5815,0.37,14.48,47.84626,-54.09684
2020-04-04 16:09:01+00:00,208.5081,0.4,14.48,47.84626,-54.09684
2020-04-04 16:19:01+00:00,214.0598,0.44,14.4,47.84626,-54.09684
2020-04-04 16:29:01+00:00,217.8315,0.5,14.4,47.84626,-54.09684
2020-04-04 16:39:01+00:00,219.6697,0.43,14.4,47.84626,-54.09684
2020-04-04 16:49:01+00:00,223.3581,0.4,14.4,47.84626,-54.09684
2020-04-04 16:59:01+00:00,226.4298,0.39,14.4,47.84626,-54.09684
2020-04-04 17:09:01+00:00,229.6064,0.4,14.4,47.84626,-54.09684
2020-04-04 17:19:01+00:00,234.6881,0.4,14.4,47.84626,-54.09684
2020-04-04 17:29:01+00:00,241.0481,0.39,14.4,47.84626,-54.09684
2020-04-04 17:39:01+00:00,244.2715,0.4,14.4,47.84626,-54.09684
2020-04-04 17:49:01+00:00,247.7198,0.39,14.4,47.84626,-54.09684
2020-04-04 17:59:01+00:00,253.6214,0.4,14.4,47.84626,-54.09684
2020-04-04 18:09:01+00:00,257.9297,0.4,14.4,47.84626,-54.09684
2020-04-04 18:19:01+00:00,263.8247,0.4,14.24,47.84626,-54.09684
2020-04-04 18:29:01+00:00,270.2947,0.4,14.24,47.84626,-54.09684
2020-04-04 18:39:01+00:00,278.1797,0.4,14.24,47.84626,-54.09684
2020-04-04 18:49:01+00:00,283.8864,0.4,14.24,47.84626,-54.09684
2020-04-04 18:59:01+00:00,290.328,0.4,14.24,47.84626,-54.09684
2020-04-04 19:09:01+00:00,295.5497,0.4,14.24,47.84626,-54.09684
2020-04-04 19:19:01+00:00,301.4663,0.41,14.16,47.84626,-54.09684
2020-04-04 19:29:01+00:00,305.2114,0.42,14.16,47.84626,-54.09684
2020-04-04 19:39:01+00:00,306.693,0.44,14.16,47.84626,-54.09684
2020-04-04 19:49:01+00:00,308.478,0.47,14.16,47.84626,-54.09684
2020-04-04 19:59:01+00:00,310.0713,0.48,14.16,47.84626,-54.09684
2020-04-04 20:09:01+00:00,311.6662,0.49,14.16,47.84626,-54.09684
2020-04-04 20:19:01+00:00,314.403,0.5,14.0,47.84626,-54.09684
2020-04-04 20:29:01+00:00,316.8464,0.5,14.0,47.84626,-54.09684
2020-04-04 20:39:01+00:00,317.758,0.5,14.0,47.84626,-54.09684
2020-04-04 20:49:01+00:00,318.6414,0.5,14.0,47.84626,-54.09684
2020-04-04 20:59:01+00:00,318.6129,0.53,14.0,47.84626,-54.09684
2020-04-04 21:09:01+00:00,318.5049,0.6,14.0,47.84626,-54.09684
2020-04-04 21:19:01+00:00,318.7513,0.6,13.68,47.84626,-54.09684
2020-04-04 21:29:01+00:00,316.803,0.63,13.68,47.84626,-54.09684
2020-04-04 21:39:01+00:00,313.8363,0.7,13.68,47.84626,-54.09684
2020-04-04 21:49:01+00:00,313.3547,0.72,13.68,47.84626,-54.09684
2020-04-04 21:59:01+00:00,311.7463,0.9,13.68,47.84626,-54.09684
2020-04-04 22:09:01+00:00,310.0547,0.8,13.68,47.84626,-54.09684
2020-04-04 22:19:01+00:00,310.33799999999997,0.5,13.29,47.84626,-54.09684
2020-04-04 22:29:01+00:00,308.2963,0.4,13.29,47.84626,-54.09684
2020-04-04 22:39:01+00:00,301.58799999999997,0.39,13.29,47.84626,-54.09684
2020-04-04 22:49:01+00:00,297.2564,0.4,13.29,47.84626,-54.09684
2020-04-04 22:59:01+00:00,294.3547,0.4,13.29,47.84626,-54.09684
2020-04-04 23:09:01+00:00,287.7531,0.37,13.29,47.84626,-54.09684
2020-04-04 23:19:01+00:00,277.9214,0.4,12.97,47.84626,-54.09684
2020-04-04 23:29:01+00:00,272.7348,0.4,12.97,47.84626,-54.09684
2020-04-04 23:39:01+00:00,269.9781,0.45,12.97,47.84626,-54.09684
2020-04-04 23:49:01+00:00,264.4664,0.49,12.97,47.84626,-54.09684
2020-04-04 23:59:01+00:00,257.0881,0.5,12.97,47.84626,-54.09684
